2020-082A (46916 NORAD) Tracking and Keplerian Element Data

This shows tracking and keplerian element data for the satellite.

Feedback or suggestion? Click here.




ElementValue
Catalog46916
Name2020-082A
Epoch Orbit1
Epoch Day317.98813721
Epoch Year2020
RAAN289.1957
Inclination28.4367
Eccentricity0.7313475
Argument of Perigee178.2258
Mean Anonmoly251.4612
Mean Motion2.28160692
Decay Rate3.491E-05
L11 46916U 20082A 20317.98813721 .00003491 -57871-6 10000-3 0 9996
L22 46916 28.4367 289.1957 7313475 178.2258 251.4612 2.28160692 10

Live tracking and technical data element details for 2020-082A (NORAD 46916). 2020-082A can be tracked NOW for your location showing map with azimuth and elevation plus other details from your city location.

Track the satellite on the map from your city or location and see movement details for azimuth, elevation, latitude, longitude, range, height, and movement on the map or in text.







IsCatalogInMostPopularTable: catalog: 46916, numindb: -1

Insert: records affected: 1


GetName: 46916 2020-082A

Hit Count: inserted at: Tue, 24 Nov 2020 11:39:12 GMT